Albany, GA

9:00 AM EDT on October 16, 2019 (GMT -0400)
Southwest Georgia Regional

Weather History for KABY - September, 2019

Change the Weather History Date:

Friday, September 20, 2019

  Actual Average Record
Temperature  
Mean Temperature 76 °F 77 °F  
Max Temperature 90 °F 87 °F 103 °F (1931)
Min Temperature 63 °F 66 °F 44 °F (1981)
Degree Days  
Heating Degree Days 0    
Month to date heating degree days 0  
Since 1 July heating degree days 0  
Cooling Degree Days 12    
Month to date cooling degree days 367  
Year to date cooling degree days 2727  
Growing Degree Days 26 (Base 50)    
Moisture  
Dew Point 59 °F    
Average Humidity 58    
Maximum Humidity 81    
Minimum Humidity 35    
Precipitation  
Precipitation 0.00 in 0.08 in 0.04 in (2011)
Month to date precipitation 1.26 2.54  
Year to date precipitation 33.97 38.14  
Sea Level Pressure  
Sea Level Pressure 30.20 in    
Wind  
Wind Speed 7 mph ()    
Max Wind Speed 18 mph    
Max Gust Speed 25 mph    
Visibility 10.0 miles    
Events      
T = Trace of Precipitation, MM = Missing Value Source: Averaged Metar Reports

Daily Weather History Graph

Daily Weather History Graph

Search for Another Location

Airport or City:

Astronomy

Sep. 20, 2019 Rise Set
Actual Time 7:23 AM EDT 7:36 PM EDT
Civil Twilight 6:59 AM EDT 8:00 PM EDT
Nautical Twilight 6:31 AM EDT 8:28 PM EDT
Astronomical Twilight 6:02 AM EDT 8:57 PM EDT
Moon 11:47 PM EDT (9/20) 1:06 PM EDT (9/20)
Length of Visible Light 13h 01m
Length of Day
12h 12m
Waning Gibbous, 65% of the Moon is Illuminated
Sep 20
Waning Gibbous
Sep 21
Last Quarter
Sep 28
New
Oct 5
First Quarter
Oct 13
Full

Hourly Weather History & Observations

Time (EDT) Temp. Heat Index Dew Point Humidity Pressure Visibility Wind Dir Wind Speed Gust Speed Precip Events Conditions
12:53 AM 68.0 °F - 55.0 °F 63% 30.18 in 10.0 mi ENE 5.8 mph - N/A   Clear
1:53 AM 68.0 °F - 57.0 °F 68% 30.18 in 10.0 mi East 4.6 mph - N/A   Clear
2:53 AM 66.9 °F - 59.0 °F 76% 30.18 in 10.0 mi East 9.2 mph - N/A   Clear
3:53 AM 64.9 °F - 57.9 °F 78% 30.18 in 10.0 mi NE 6.9 mph - N/A   Clear
4:53 AM 64.9 °F - 59.0 °F 81% 30.19 in 10.0 mi NE 9.2 mph - N/A   Clear
5:53 AM 64.0 °F - 57.9 °F 80% 30.20 in 10.0 mi ENE 8.1 mph - N/A   Clear
6:53 AM 64.0 °F - 57.0 °F 78% 30.22 in 10.0 mi NE 5.8 mph - N/A   Clear
7:53 AM 64.9 °F - 57.0 °F 75% 30.24 in 10.0 mi NNE 5.8 mph - N/A   Clear
8:53 AM 69.1 °F - 55.9 °F 63% 30.25 in 10.0 mi ENE 11.5 mph 19.6 mph N/A   Clear
9:53 AM 73.0 °F - 57.0 °F 57% 30.25 in 10.0 mi ENE 11.5 mph - N/A   Mostly Cloudy
10:53 AM 79.0 °F - 60.1 °F 52% 30.26 in 10.0 mi ENE 13.8 mph - N/A   Clear
11:53 AM 82.0 °F 82.7 °F 61.0 °F 49% 30.26 in 10.0 mi ENE 13.8 mph - N/A   Partly Cloudy
12:53 PM 84.9 °F 85.4 °F 62.1 °F 46% 30.24 in 10.0 mi East 10.4 mph - N/A   Partly Cloudy
1:53 PM 87.1 °F 87.0 °F 61.0 °F 41% 30.22 in 10.0 mi East 13.8 mph - N/A   Clear
2:53 PM 88.0 °F 87.9 °F 61.0 °F 40% 30.19 in 10.0 mi ENE 9.2 mph - N/A   Scattered Clouds
3:53 PM 90.0 °F 89.7 °F 60.1 °F 37% 30.18 in 10.0 mi East 9.2 mph 18.4 mph N/A   Mostly Cloudy
4:53 PM 89.1 °F 88.0 °F 57.9 °F 35% 30.17 in 10.0 mi NE 11.5 mph 18.4 mph N/A   Scattered Clouds
5:53 PM 87.1 °F 85.7 °F 55.9 °F 35% 30.16 in 10.0 mi East 5.8 mph - N/A   Scattered Clouds
6:53 PM 87.1 °F 85.9 °F 57.0 °F 36% 30.16 in 10.0 mi ENE 8.1 mph - N/A   Partly Cloudy
7:53 PM 81.0 °F 81.1 °F 57.9 °F 45% 30.17 in 10.0 mi ENE 4.6 mph - N/A   Partly Cloudy
8:53 PM 77.0 °F - 59.0 °F 54% 30.19 in 10.0 mi East 3.5 mph - N/A   Clear
9:53 PM 75.9 °F - 60.1 °F 58% 30.21 in 10.0 mi East 5.8 mph - N/A   Clear
10:53 PM 75.9 °F - 63.0 °F 64% 30.21 in 10.0 mi East 8.1 mph - N/A   Clear
11:53 PM 75.0 °F - 64.0 °F 69% 30.22 in 10.0 mi ESE 6.9 mph - N/A   Clear